Regional Weather Roundup
Issued by NWS

Home | Current Version | Previous Version | Text Only | Print | Product List | Glossary Off
Versions: 1 2 3 4 5 6 7 8 9 10 11 12 13 14 15 16 17 18 19 20 21 22 23 24 25 26 27 28 29 30 31 32 33 34 35 36 37 38 39 40 41 42 43 44 45 46 47 48 49 50

000
ASUS45 KCYS 181910
RWRWY

WYOMING REGIONAL WEATHER ROUNDUP
NATIONAL WEATHER SERVICE CHEYENNE WY
100 PM MDT THU SEP 18 2014

NOTE:  "FAIR" INDICATES FEW OR NO CLOUDS BELOW 12,000 FEET
WITH NO SIGNIFICANT WEATHER AND/OR OBSTRUCTIONS TO VISIBILITY.

WYZ001-182000-
YELLOWSTONE NATIONAL PARK

CITY           SKY/WX    TMP DP  RH WIND       PRES   REMARKS
LK YELLOWSTONE   N/A     57  49  74 CALM      30.14F
W YELLOWSTONE  NOT AVBL

$$
WYZ002>013-054>058-071-098>099-182000-
NORTHERN WYOMING

CITY           SKY/WX    TMP DP  RH WIND       PRES   REMARKS
JACKSON        MOSUNNY   70  46  43 CALM      30.04F
CODY             N/A    N/A N/A N/A MISG        N/A
GREYBULL       CLOUDY    77  44  30 E6        29.83F
WORLAND        PTSUNNY   82  43  25 CALM      29.85F
SHERIDAN       CLOUDY    77  56  48 CALM      29.84F
BUFFALO        PTSUNNY   79  51  37 NW8       29.92R
GILLETTE       MOSUNNY   89  43  20 W12G20    29.84F
HULETT         FAIR      88  41  19 MISG      29.85
NEWCASTLE      FAIR      82  41  23 MISG      29.89

$$
WYZ014>020-022>026-101>103-182000-
CENTRAL WYOMING

CITY           SKY/WX    TMP DP  RH WIND       PRES   REMARKS
BIG PINEY      SUNNY     76  42  29 CALM      30.08F
PINEDALE       CLEAR     75  37  25 SW6G16    30.09F
DUBOIS         FAIR      73  37  27 N8G22     30.05F THUNDER
LANDER         MOSUNNY   80  42  25 N7        29.94F
RIVERTON       MOSUNNY   77  46  33 E9        29.96F
CASPER         MOSUNNY   88  35  15 SW16G30   29.95F
DOUGLAS        MOSUNNY   88  42  20 VRB5      29.94F

$$
WYZ021-027>030-104>119-182000-
SOUTHERN WYOMING

CITY           SKY/WX    TMP DP  RH WIND       PRES   REMARKS
EVANSTON       SUNNY    N/A N/A N/A S14G26    30.09F
KEMMERER       PTCLDY    79  36  21 SW26      30.10F
FORT BRIDGER   FAIR      81  36  20 SW14G22   30.11F
ROCK SPRINGS   MOSUNNY   80  33  18 W12G17    30.07F
DIXON          FAIR      79  43  27 W3        30.12F
RAWLINS        SUNNY     82  28  14 W18       30.09F
SARATOGA       FAIR      79  34  19 CALM      30.12F
LARAMIE        SUNNY     78  31  17 VRB3      30.13F
CHEYENNE       SUNNY     86  29  12 W10G16    30.06F
TORRINGTON     MOSUNNY   84  49  29 SE8       29.91F
PINE BLUFFS    FAIR      88  32  13 SW7       30.00S

$$


USA.gov is the U.S. government's official web portal to all federal, state and local government web resources and services.